Location: Klein M�hlingen
(51.9472°N, 11.7453°E)
Time: 13:28:17
(UTC+00:00)

Terra - Pass Details

Date: 09 April 2020
Orbit: 701 x 703 km, 98.2° (Epoch: 26 May)

Event Time Altitude Azimuth Distance (km) Brightness Sun altitude
Exits shadow 18:50:42 - 82° (E) 2,547 4.2 -8.0°
Reaches altitude 10° 18:53:09 10° 57° (ENE) 2,182 4.1 -8.4°
Maximum altitude 18:53:51 10° 48° (NE) 2,161 4.1 -8.5°
Drops below altitude 10° 18:54:34 10° 39° (NE) 2,184 4.2 -8.6°
Sets 18:59:04 0° 360° (N) 3,109 5.5 -9.2°
